COSMOS 252 DEB, 18431

Orbit data source: Space-Track

COSMOS 252 DEB, 18431 is space debris in LEO originally from a launch on Fri, 01 Nov 1968 UTC launched from the Tyuratam Missile And Space Complex (TTMTR). Debris objects in space refer to the collection of defunct objects orbiting the Earth. Examples of debris include non-operational satellites, rocket bodies, and fragments generated from explosions, collisions, or faulty payload assembly.

Loading next visibility...
Identifier
18431, 1968-097EJ
Orbit
LEO
Country
Flag of CISCIS
Related business
Manufacturer
Unknown
Mission
Spacecraft
Bus & Motor
Unknown
Mass
Unknown
Launch date (UTC)
1968-11-01 (57 years ago)
Launch vehicle
Unknown
Launch site
Tyuratam Missile And Space Complex (TTMTR)
Object type
Payload
Rocket body
Debris
Shape & HBR
Unknown shape, 0.1 m
Radar Cross Section
Small (<0.1 m²)

Expand to show TLE details & history
Last TLE update: 17 hours ago

TLE from 17 hours ago
0 COSMOS 252 DEB
1 18431U 68097EJ  25287.91448690  .00000579  00000-0  21377-3 0  9996
2 18431  62.3475 355.3632 0873202 106.6469 263.2164 13.20001065415964
Epoch: 2025-10-14T21:56Z
TLE epoch observation values (Epoch: 2025-10-14T21:56:51.668Z)
Latitude
0.00007°
Longitude
2.45188°
Altitude
1,320.14 km
Speed
7.134 km/s
True Right ascension
23h 41m 27s
True Declination
0° 00' 00"
Sunlit
Object was in full shadow at epoch
Visualization orbit readout
Latitude
Unknown
Longitude
Unknown
Altitude
Unknown
Speed
Unknown
Apparent Right ascension
Unknown
Apparent Declination
Unknown
Sunlit
N/A
Visualization observer readout
Local Sidereal Time
09:29:48
Azimuth
Unknown
Elevation
Unknown
Doppler factor
Unknown
Orbital elements
Apogee altitude
1,843.978 km
Perigee altitude
523.379 km
Semi-major axis
7,561.816 km
Eccentricity
0.08732
Inclination
62.3475°
RAAN
355.3632°
Arg. of periapsis
106.6469°
True anomaly
253.45419°
Mean anomaly
263.2164°
Eccentric anomaly
258.31697°
Mean motion
3.30068 °/min
Orbital period
109.07 mins
BSTAR
0.00021377
Loading maneuver chart data...
Computing Atmospheric mass density...

Documentation

Showing up to 5 results
|